{"data":{"norad_id":56782,"epoch":"2026-09-20T22:00:03.000096Z","epoch_age_seconds":78892,"freshness":"FRESH","line1":"1 56782U 23078R   26263.91670139 -.00000788  00000+0 -37239-4 0  9995","line2":"2 56782  70.0001 191.9780 0003883 289.8967  38.8150 15.14074821  5760","mean_motion":15.14074821,"eccentricity":0.0003883,"inclination_deg":70.0001,"raan_deg":191.978,"arg_perigee_deg":289.8967,"mean_anomaly_deg":38.815,"bstar":-3.7239e-5,"rev_number":576,"period_min":95.107585175277,"perigee_km":521.10873670452,"apogee_km":526.46877224544,"semimajor_km":6901.925754475,"source":"CELESTRAK","updated_at":"2026-09-21T09:00:33.488085Z"}}